Date,TemperatureHighF,TemperatureAvgF,TemperatureLowF,DewpointHighF,DewpointAvgF,DewpointLowF,HumidityHigh,HumidityAvg,HumidityLow,PressureMaxIn,PressureMinIn,WindSpeedMaxMPH,WindSpeedAvgMPH,GustSpeedMaxMPH,PrecipitationSumIn
2013-8-1,87,69,59,69,63,58,98,83,48,29.93,29.76,4,1,13,0.64
2013-8-2,88,72,65,70,64,56,98,79,39,29.76,29.66,4,1,14,0.83
2013-8-3,84,72,61,64,60,53,94,69,39,29.74,29.64,5,1,15,0.02
2013-8-4,82,66,56,63,59,54,96,79,46,29.78,29.65,6,1,16,0.21
2013-8-5,81,63,53,56,50,42,94,67,27,29.93,29.77,4,1,12,0.00
2013-8-6,84,63,49,61,53,47,96,74,35,30.03,29.93,4,0,7,0.00
2013-8-7,86,67,54,64,56,51,97,72,32,30.07,29.97,3,1,13,0.24
2013-8-8,86,73,64,72,66,58,94,79,61,30.00,29.87,6,1,11,0.11
2013-8-9,75,73,70,74,71,69,98,94,87,29.89,29.61,3,1,11,1.66
2013-8-10,87,73,63,69,63,54,99,75,36,29.90,29.66,4,1,11,0.01
2013-8-11,85,65,53,62,56,52,98,78,34,29.96,29.88,4,0,11,0.01
2013-8-12,87,67,57,64,59,56,98,79,37,29.91,29.79,4,0,8,0.05
2013-8-13,75,67,63,69,64,-100,97,90,78,29.80,29.56,2,0,6,0.10
2013-8-14,79,66,58,64,54,-100,97,70,41,29.82,29.54,5,2,17,0.05
2013-8-15,81,59,50,57,42,-100,98,70,36,29.99,29.83,4,0,11,0.03
2013-8-16,85,63,51,60,51,-100,97,74,35,30.07,29.98,3,0,9,0.00
2013-8-17,86,64,53,67,58,51,97,83,42,30.16,30.07,2,0,6,0.28
2013-8-18,86,68,56,68,60,-100,98,79,42,30.16,29.96,2,0,9,0.51
2013-8-19,87,68,58,65,48,-100,98,71,44,29.96,29.83,4,1,9,0.24
2013-8-20,92,70,59,69,61,-100,98,80,37,29.97,29.86,2,0,6,0.17
2013-8-21,95,73,60,71,63,59,98,77,37,30.02,29.90,4,0,9,0.00
2013-8-22,93,77,62,72,66,61,96,74,42,29.91,29.69,6,1,12,0.28
2013-8-23,86,73,61,69,59,51,89,66,37,30.01,29.70,6,2,13,0.52
2013-8-24,84,61,51,61,53,49,95,79,31,30.21,30.02,3,0,8,0.22
2013-8-25,87,66,50,61,52,-100,98,68,28,30.25,30.06,4,1,13,0.44
2013-8-26,85,72,63,69,64,57,95,75,55,30.06,29.75,6,1,13,0.10
2013-8-27,92,75,69,70,68,66,94,81,43,29.76,29.71,5,1,9,0.01
2013-8-28,92,80,69,69,67,64,85,68,45,29.87,29.72,4,1,9,0.00
2013-8-29,69,66,63,66,63,59,95,89,82,29.97,29.83,6,2,12,0.01
2013-8-30,90,71,59,69,63,57,96,79,44,29.92,29.68,3,0,12,0.17
2013-8-31,82,74,67,76,71,65,98,91,79,29.71,29.65,2,0,7,0.56